星链-31722 (STARLINK-31722 )

导读 | 星芒AI

STARLINK-31722 是 SpaceX Starlink 卫星互联网项目中的一颗低轨卫星,属于星链计划的第三批部署任务。该卫星由猎鹰9号火箭发射入轨,运行在约 550 公里的近地轨道上,旨在为全球用户提供高速互联网服务。作为星链星座的一部分,STARLINK-31722 与其他卫星协同工作,提升网络覆盖和连接稳定性,尤其在偏远地区具有重要意义。

基本信息
目录编号:
59549
目录名称:
STARLINK-31722
国际标识:
2024-074R
轨道中心:
EARTH
卫星名称:
星链-31722
卫星全名:
星链-31722 (STARLINK-31722 )
卫星状态:
在轨 (已飞行611 天)
发射日期:
2024-04-18 UTC
国别 :
美国 (US)
星等 :
--
轨道信息
数据来源 国际轨道数据 AOE轨道数据
星历时间 2025-12-19T15:03:19+0800
19小时前
查看轨道信息
2025-12-14T11:00:00+0800
5天前
查看轨道信息
半长轴 6861.106km 6861.142km
偏心率 0.0001326 0.0000647
轨道倾角 43.001° 43.003°
近地点辐角 274.414° 228.978°
升交点赤经 77.141° 106.334°
平近点角 85.656° 112.172°
近地点 482.059km 482.563km
远地点 483.879km 483.451km
周期 94.265分钟 94.266分钟
每日圈数 15.27607 15.275948
详细信息
固有亮度:
5
最大亮度:
1.5
卫星平台:
Starlink v2.0 mini
覆盖范围:
全球
运营商:
太空探索技术公司
运营商所在国:
美国
制造商(研发单位):
太空探索技术公司
制造商所在国:
美国
使用方式:
暂无
卫星简介
星链(Starlink)计划是由太空探索技术公司(SpaceX)提出的一个巨型低轨卫星互联网星座项目,计划在2019年至2024年间在太空搭建由约1.2万颗卫星组成的“星链”网络,其中1584颗将部署在地球上空550千米处的近地轨道,并从2020年开始工作。该卫星仍在工作。
2D轨道图
3D轨道图
轨道高度分析图
轨道倾角分析图
轨道综合分析图
查看轨道综合分析图